| time (UTC) | temp C | wind direction | speed KPH | gust KPH | rain 1hr cm | rain 24hr cm | rain mn cm | humidity % | barometer mb |
| 20260505094128 | 7 | 120 | 0.0 | 1.6 | 0.00 | 0.00 | 0.00 | 96 | 1008.7 |
| 20260505093624 | 7 | 7 | 0.0 | 0.0 | 0.00 | 0.00 | 0.00 | 96 | 1008.4 |
| 20260505093121 | 7 | 83 | 0.0 | 3.2 | 0.00 | 0.00 | 0.00 | 96 | 1008.5 |
| 20260505092619 | 7 | 203 | 0.0 | 0.0 | 0.00 | 0.00 | 0.00 | 96 | 1008.6 |
| 20260505092118 | 7 | 165 | 0.0 | 1.6 | 0.00 | 0.00 | 0.00 | 95 | 1008.8 |
| 20260505091614 | 7 | 160 | 0.0 | 0.0 | 0.00 | 0.00 | 0.00 | 95 | 1008.6 |
| 20260505091112 | 7 | 165 | 0.0 | 3.2 | 0.00 | 0.00 | 0.00 | 95 | 1008.6 |
| 20260505090610 | 7 | 135 | 3.2 | 3.2 | 0.00 | 0.00 | 0.00 | 95 | 1008.7 |
| 20260505090108 | 7 | 145 | 0.0 | 3.2 | 0.00 | 0.00 | 0.00 | 95 | 1008.6 |
| 20260505085605 | 7 | 106 | 0.0 | 1.6 | 0.00 | 0.00 | 0.00 | 95 | 1008.5 |
| 20260505085103 | 7 | 90 | 3.2 | 3.2 | 0.00 | 0.00 | 0.00 | 95 | 1008.5 |
| 20260505084601 | 7 | 151 | 1.6 | 3.2 | 0.00 | 0.00 | 0.00 | 95 | 1008.5 |
| 20260505084059 | 7 | 7 | 0.0 | 1.6 | 0.00 | 0.00 | 0.00 | 95 | 1008.5 |
| 20260505083555 | 7 | 114 | 1.6 | 3.2 | 0.00 | 0.00 | 0.00 | 95 | 1008.5 |
| 20260505083052 | 7 | 90 | 1.6 | 3.2 | 0.00 | 0.00 | 0.00 | 95 | 1008.5 |
| 20260505082548 | 7 | 180 | 0.0 | 3.2 | 0.00 | 0.00 | 0.00 | 95 | 1008.7 |
| 20260505082045 | 7 | 144 | 3.2 | 3.2 | 0.00 | 0.00 | 0.00 | 95 | 1008.7 |
| 20260505081541 | 7 | 126 | 0.0 | 3.2 | 0.00 | 0.00 | 0.00 | 95 | 1008.6 |
| 20260505081039 | 7 | 157 | 0.0 | 1.6 | 0.00 | 0.00 | 0.00 | 95 | 1008.7 |
| 20260505080535 | 7 | 187 | 1.6 | 1.6 | 0.00 | 0.00 | 0.00 | 94 | 1008.7 |
| 20260505080032 | 7 | 165 | 0.0 | 0.0 | 0.00 | 0.00 | 0.00 | 94 | 1008.8 |
| 20260505075527 | 7 | 151 | 0.0 | 1.6 | 0.00 | 0.00 | 0.00 | 94 | 1008.6 |
| 20260505075025 | 7 | 186 | 0.0 | 1.6 | 0.00 | 0.00 | 0.00 | 94 | 1008.6 |
| 20260505074522 | 7 | 203 | 0.0 | 1.6 | 0.00 | 0.00 | 0.00 | 94 | 1008.7 |
| 20260505074019 | 7 | 180 | 0.0 | 3.2 | 0.00 | 0.00 | 0.00 | 94 | 1008.8 |
| 20260505073516 | 7 | 203 | 0.0 | 3.2 | 0.00 | 0.00 | 0.00 | 94 | 1008.8 |
| 20260505073015 | 7 | 107 | 3.2 | 3.2 | 0.00 | 0.00 | 0.00 | 93 | 1008.7 |
| 20260505072510 | 7 | 165 | 0.0 | 3.2 | 0.00 | 0.00 | 0.00 | 94 | 1008.8 |
| 20260505072006 | 7 | 106 | 0.0 | 0.0 | 0.00 | 0.00 | 0.00 | 93 | 1008.8 |
| 20260505071502 | 7 | 151 | 0.0 | 1.6 | 0.00 | 0.00 | 0.00 | 93 | 1008.6 |
| 20260505071000 | 7 | 187 | 1.6 | 3.2 | 0.00 | 0.00 | 0.00 | 93 | 1008.8 |
| 20260505070457 | 7 | 98 | 0.0 | 1.6 | 0.00 | 0.00 | 0.00 | 93 | 1008.7 |
| 20260505065952 | 7 | 165 | 0.0 | 3.2 | 0.00 | 0.00 | 0.00 | 92 | 1008.7 |
| 20260505065449 | 8 | 165 | 0.0 | 1.6 | 0.00 | 0.00 | 0.00 | 92 | 1008.7 |
| 20260505064946 | 8 | 148 | 1.6 | 3.2 | 0.00 | 0.00 | 0.00 | 92 | 1008.7 |
| 20260505064442 | 8 | 145 | 1.6 | 3.2 | 0.00 | 0.00 | 0.00 | 92 | 1008.9 |
| 20260505063941 | 8 | 166 | 1.6 | 1.6 | 0.00 | 0.00 | 0.00 | 92 | 1008.8 |
| 20260505063437 | 8 | 147 | 0.0 | 3.2 | 0.00 | 0.00 | 0.00 | 92 | 1008.7 |
| 20260505062933 | 8 | 151 | 0.0 | 1.6 | 0.00 | 0.00 | 0.00 | 91 | 1008.8 |
| 20260505062430 | 8 | 165 | 0.0 | 1.6 | 0.00 | 0.00 | 0.00 | 91 | 1008.7 |
| 20260505061927 | 8 | 194 | 0.0 | 3.2 | 0.00 | 0.00 | 0.00 | 91 | 1008.8 |
| 20260505061425 | 8 | 165 | 3.2 | 3.2 | 0.00 | 0.00 | 0.00 | 90 | 1008.7 |
| 20260505060923 | 8 | 172 | 0.0 | 0.0 | 0.00 | 0.00 | 0.00 | 90 | 1008.7 |
| 20260505060419 | 8 | 187 | 0.0 | 1.6 | 0.00 | 0.00 | 0.00 | 89 | 1008.9 |
| 20260505055916 | 8 | 131 | 0.0 | 3.2 | 0.00 | 0.00 | 0.00 | 89 | 1009.2 |
| 20260505055412 | 8 | 240 | 0.0 | 0.0 | 0.00 | 0.00 | 0.00 | 88 | 1009.1 |
| 20260505054909 | 9 | 240 | 0.0 | 1.6 | 0.00 | 0.00 | 0.00 | 87 | 1009.1 |
| 20260505054407 | 9 | 195 | 0.0 | 1.6 | 0.00 | 0.00 | 0.00 | 87 | 1009.0 |
| 20260505053905 | 10 | 145 | 0.0 | 3.2 | 0.00 | 0.00 | 0.00 | 85 | 1009.2 |
| 20260505053401 | 10 | 126 | 0.0 | 1.6 | 0.00 | 0.00 | 0.00 | 84 | 1009.1 |
| 20260505052858 | 10 | 180 | 0.0 | 1.6 | 0.00 | 0.00 | 0.00 | 83 | 1009.3 |
| 20260505052354 | 10 | 165 | 0.0 | 3.2 | 0.00 | 0.00 | 0.00 | 82 | 1009.4 |
| 20260505051852 | 11 | 180 | 0.0 | 3.2 | 0.00 | 0.00 | 0.00 | 80 | 1009.1 |
| 20260505051349 | 11 | 243 | 0.0 | 3.2 | 0.00 | 0.00 | 0.00 | 80 | 1009.2 |
| 20260505050847 | 11 | 180 | 0.0 | 3.2 | 0.00 | 0.00 | 0.00 | 80 | 1009.3 |
| 20260505050345 | 11 | 356 | 0.0 | 3.2 | 0.00 | 0.00 | 0.00 | 80 | 1009.4 |
| 20260505041312 | 11 | 169 | 1.6 | 4.8 | 0.00 | 0.00 | 0.00 | 80 | 1009.5 |
| 20260505040809 | 11 | 98 | 0.0 | 3.2 | 0.00 | 0.00 | 0.00 | 79 | 1009.5 |
| 20260505040308 | 11 | 102 | 0.0 | 3.2 | 0.00 | 0.00 | 0.00 | 79 | 1009.7 |
| 20260505035804 | 11 | 35 | 0.0 | 4.8 | 0.00 | 0.00 | 0.00 | 78 | 1009.5 |
| 20260505035259 | 11 | 111 | 1.6 | 6.4 | 0.00 | 0.00 | 0.00 | 78 | 1009.3 |
| 20260505034757 | 11 | 82 | 0.0 | 4.8 | 0.00 | 0.00 | 0.00 | 77 | 1009.3 |
| 20260505034254 | 11 | 56 | 3.2 | 3.2 | 0.00 | 0.00 | 0.00 | 77 | 1009.2 |
| 20260505033750 | 11 | 120 | 0.0 | 1.6 | 0.00 | 0.00 | 0.00 | 77 | 1009.3 |
| 20260505033248 | 11 | 157 | 0.0 | 3.2 | 0.00 | 0.00 | 0.00 | 78 | 1009.3 |
| 20260505032746 | 11 | 165 | 0.0 | 1.6 | 0.00 | 0.00 | 0.00 | 77 | 1009.2 |
| 20260505032241 | 11 | 94 | 3.2 | 4.8 | 0.00 | 0.00 | 0.00 | 76 | 1009.4 |
| 20260505031739 | 12 | 185 | 3.2 | 3.2 | 0.00 | 0.00 | 0.00 | 75 | 1009.2 |
| 20260505031235 | 12 | 206 | 0.0 | 1.6 | 0.00 | 0.00 | 0.00 | 74 | 1009.2 |
| 20260505030732 | 12 | 90 | 0.0 | 3.2 | 0.00 | 0.00 | 0.00 | 74 | 1009.4 |
| 20260505030228 | 12 | 99 | 0.0 | 4.8 | 0.00 | 0.00 | 0.00 | 73 | 1009.1 |
| 20260505025724 | 12 | 90 | 3.2 | 3.2 | 0.00 | 0.00 | 0.00 | 72 | 1009.2 |
| 20260505025222 | 12 | 90 | 0.0 | 4.8 | 0.00 | 0.00 | 0.00 | 71 | 1009.2 |
| 20260505024721 | 12 | 128 | 3.2 | 3.2 | 0.00 | 0.00 | 0.00 | 71 | 1009.1 |
| 20260505024217 | 12 | 69 | 0.0 | 3.2 | 0.00 | 0.00 | 0.00 | 70 | 1008.9 |
| 20260505023714 | 12 | 100 | 3.2 | 3.2 | 0.00 | 0.00 | 0.00 | 70 | 1009.1 |
| 20260505023212 | 13 | 203 | 0.0 | 4.8 | 0.00 | 0.00 | 0.00 | 69 | 1009.3 |
| 20260505022709 | 13 | 81 | 0.0 | 6.4 | 0.00 | 0.00 | 0.00 | 68 | 1009.1 |
| 20260505022206 | 13 | 90 | 4.8 | 4.8 | 0.00 | 0.00 | 0.00 | 68 | 1009.3 |
| 20260505021702 | 13 | 115 | 4.8 | 8.0 | 0.00 | 0.00 | 0.00 | 67 | 1009.3 |
| 20260505021159 | 13 | 208 | 3.2 | 4.8 | 0.00 | 0.00 | 0.00 | 67 | 1009.3 |
| 20260505020656 | 13 | 79 | 4.8 | 6.4 | 0.00 | 0.00 | 0.00 | 66 | 1009.4 |
| 20260505020151 | 13 | 203 | 0.0 | 4.8 | 0.00 | 0.00 | 0.00 | 66 | 1009.3 |
| 20260505015649 | 13 | 90 | 0.0 | 6.4 | 0.00 | 0.00 | 0.00 | 65 | 1008.9 |
| 20260505015145 | 13 | 198 | 1.6 | 3.2 | 0.00 | 0.00 | 0.00 | 65 | 1009.1 |
| 20260505014642 | 14 | 233 | 3.2 | 6.4 | 0.00 | 0.00 | 0.00 | 64 | 1009.1 |
| 20260505014140 | 14 | 166 | 1.6 | 8.0 | 0.00 | 0.00 | 0.00 | 63 | 1009.1 |
| 20260505013637 | 14 | 173 | 1.6 | 4.8 | 0.00 | 0.00 | 0.00 | 63 | 1009.2 |
| 20260505013133 | 14 | 16 | 0.0 | 6.4 | 0.00 | 0.00 | 0.00 | 63 | 1009.0 |
| 20260505012632 | 15 | 215 | 0.0 | 8.0 | 0.00 | 0.00 | 0.00 | 62 | 1008.8 |
| 20260505012128 | 15 | 32 | 3.2 | 4.8 | 0.00 | 0.00 | 0.00 | 61 | 1009.0 |
| 20260505011623 | 15 | 90 | 4.8 | 11.3 | 0.00 | 0.00 | 0.00 | 60 | 1008.5 |
| 20260505011121 | 15 | 215 | 0.0 | 6.4 | 0.00 | 0.00 | 0.00 | 60 | 1008.5 |
| 20260505010617 | 15 | 32 | 3.2 | 3.2 | 0.00 | 0.00 | 0.00 | 60 | 1008.6 |
| 20260505010114 | 15 | 208 | 3.2 | 14.5 | 0.00 | 0.00 | 0.00 | 59 | 1008.5 |
| 20260505005610 | 15 | 67 | 0.0 | 9.7 | 0.00 | 0.00 | 0.00 | 59 | 1008.2 |
| 20260505005107 | 15 | 12 | 4.8 | 12.9 | 0.00 | 0.00 | 0.00 | 58 | 1008.3 |
| 20260505004604 | 15 | 139 | 6.4 | 6.4 | 0.00 | 0.00 | 0.00 | 59 | 1008.1 |
| 20260505004101 | 15 | 54 | 6.4 | 11.3 | 0.00 | 0.00 | 0.00 | 58 | 1008.0 |
| 20260505003558 | 16 | 125 | 4.8 | 16.1 | 0.00 | 0.00 | 0.00 | 57 | 1008.0 |
| 20260505003055 | 16 | 108 | 6.4 | 11.3 | 0.00 | 0.00 | 0.00 | 57 | 1007.7 |
| 20260505002550 | 16 | 229 | 4.8 | 8.0 | 0.00 | 0.00 | 0.00 | 56 | 1007.8 |
| 20260505002049 | 16 | 304 | 0.0 | 14.5 | 0.00 | 0.00 | 0.00 | 56 | 1007.8 |
| 20260505001545 | 16 | 135 | 4.8 | 17.7 | 0.00 | 0.00 | 0.00 | 55 | 1007.7 |
| 20260505001043 | 16 | 54 | 6.4 | 11.3 | 0.00 | 0.00 | 0.00 | 55 | 1007.5 |
| 20260505000540 | 16 | 239 | 14.5 | 17.7 | 0.00 | 0.00 | 0.00 | 54 | 1007.6 |
| 20260505000038 | 16 | 125 | 0.0 | 11.3 | 0.00 | 0.00 | 0.00 | 54 | 1007.4 |
| 20260504235534 | 17 | 337 | 3.2 | 17.7 | 0.00 | 0.00 | 0.00 | 53 | 1007.4 |
| 20260504235031 | 17 | 188 | 8.0 | 12.9 | 0.00 | 0.00 | 0.00 | 53 | 1007.3 |
| 20260504234528 | 17 | 135 | 8.0 | 11.3 | 0.00 | 0.00 | 0.00 | 52 | 1007.3 |
| 20260504234025 | 17 | 160 | 12.9 | 19.3 | 0.00 | 0.00 | 0.00 | 51 | 1007.3 |
| 20260504233520 | 17 | 87 | 4.8 | 8.0 | 0.00 | 0.00 | 0.00 | 51 | 1007.0 |
| 20260504233017 | 17 | 74 | 0.0 | 11.3 | 0.00 | 0.00 | 0.00 | 49 | 1006.9 |
| 20260504232514 | 18 | 232 | 9.7 | 14.5 | 0.00 | 0.00 | 0.00 | 49 | 1006.8 |
| 20260504232012 | 18 | 103 | 4.8 | 9.7 | 0.00 | 0.00 | 0.00 | 49 | 1006.7 |
| 20260504231508 | 18 | 0 | 8.0 | 14.5 | 0.00 | 0.00 | 0.00 | 48 | 1006.5 |
| 20260504231004 | 18 | 14 | 1.6 | 9.7 | 0.00 | 0.00 | 0.00 | 47 | 1006.4 |
| 20260504230501 | 18 | 7 | 1.6 | 14.5 | 0.00 | 0.00 | 0.00 | 47 | 1006.5 |
| 20260504230000 | 18 | 257 | 14.5 | 22.5 | 0.00 | 0.00 | 0.00 | 46 | 1006.5 |
| 20260504225456 | 18 | 143 | 8.0 | 9.7 | 0.00 | 0.00 | 0.00 | 46 | 1006.4 |
| 20260504224954 | 19 | 307 | 4.8 | 20.9 | 0.00 | 0.00 | 0.00 | 45 | 1006.2 |
| 20260504224450 | 19 | 150 | 9.7 | 19.3 | 0.00 | 0.00 | 0.00 | 45 | 1006.4 |
| 20260504223947 | 19 | 214 | 12.9 | 16.1 | 0.00 | 0.00 | 0.00 | 45 | 1006.3 |
| 20260504223443 | 19 | 349 | 3.2 | 11.3 | 0.00 | 0.00 | 0.00 | 45 | 1006.2 |
| 20260504222939 | 19 | 273 | 4.8 | 11.3 | 0.00 | 0.00 | 0.00 | 44 | 1006.1 |
| 20260504222437 | 20 | 208 | 9.7 | 24.1 | 0.00 | 0.00 | 0.00 | 44 | 1006.2 |
| 20260504221934 | 20 | 120 | 4.8 | 17.7 | 0.00 | 0.00 | 0.00 | 43 | 1006.1 |
| 20260504221431 | 20 | 180 | 4.8 | 14.5 | 0.00 | 0.00 | 0.00 | 43 | 1006.3 |
| 20260504220928 | 20 | 230 | 0.0 | 24.1 | 0.00 | 0.00 | 0.00 | 41 | 1006.2 |
| 20260504220425 | 21 | 144 | 8.0 | 20.9 | 0.00 | 0.00 | 0.00 | 41 | 1006.0 |
| 20260504215922 | 21 | 82 | 12.9 | 16.1 | 0.00 | 0.00 | 0.00 | 39 | 1006.1 |
| 20260504215418 | 22 | 233 | 4.8 | 12.9 | 0.00 | 0.00 | 0.00 | 32 | 1006.2 |
| 20260504214915 | 22 | 214 | 4.8 | 6.4 | 0.00 | 0.00 | 0.00 | 32 | 1006.0 |
| 20260504214411 | 22 | 265 | 3.2 | 8.0 | 0.00 | 0.00 | 0.00 | 32 | 1006.2 |
| 20260504213908 | 22 | 180 | 3.2 | 9.7 | 0.00 | 0.00 | 0.00 | 32 | 1006.0 |
| 20260504213404 | 22 | 238 | 0.0 | 12.9 | 0.00 | 0.00 | 0.00 | 32 | 1006.2 |
| 20260504212902 | 22 | 348 | 0.0 | 4.8 | 0.00 | 0.00 | 0.00 | 33 | 1006.2 |
| 20260504212357 | 22 | 314 | 8.0 | 17.7 | 0.00 | 0.00 | 0.00 | 33 | 1006.2 |
| 20260504211855 | 22 | 342 | 4.8 | 14.5 | 0.00 | 0.00 | 0.00 | 32 | 1006.2 |
| 20260504211351 | 22 | 154 | 0.0 | 11.3 | 0.00 | 0.00 | 0.00 | 33 | 1006.2 |
| 20260504210849 | 22 | 229 | 4.8 | 8.0 | 0.00 | 0.00 | 0.00 | 33 | 1006.3 |
| 20260504210346 | 22 | 258 | 8.0 | 12.9 | 0.00 | 0.00 | 0.00 | 32 | 1006.3 |
| 20260504205843 | 22 | 203 | 0.0 | 9.7 | 0.00 | 0.00 | 0.00 | 32 | 1006.2 |
| 20260504205341 | 22 | 348 | 1.6 | 12.9 | 0.00 | 0.00 | 0.00 | 33 | 1006.4 |
| 20260504204838 | 22 | 236 | 8.0 | 16.1 | 0.00 | 0.00 | 0.00 | 32 | 1006.2 |
| 20260504204337 | 23 | 267 | 4.8 | 8.0 | 0.00 | 0.00 | 0.00 | 30 | 1006.4 |
| 20260504203836 | 23 | 201 | 4.8 | 16.1 | 0.00 | 0.00 | 0.00 | 32 | 1006.2 |
| 20260504203332 | 22 | 232 | 9.7 | 22.5 | 0.00 | 0.00 | 0.00 | 33 | 1006.3 |
| 20260504202828 | 22 | 232 | 6.4 | 14.5 | 0.00 | 0.00 | 0.00 | 32 | 1006.2 |
| 20260504202326 | 22 | 279 | 3.2 | 14.5 | 0.00 | 0.00 | 0.00 | 31 | 1006.4 |
| 20260504201822 | 23 | 257 | 9.7 | 16.1 | 0.00 | 0.00 | 0.00 | 30 | 1006.3 |
| 20260504201319 | 23 | 216 | 12.9 | 14.5 | 0.00 | 0.00 | 0.00 | 31 | 1006.3 |
| 20260504200817 | 22 | 313 | 9.7 | 19.3 | 0.00 | 0.00 | 0.00 | 31 | 1006.6 |
| 20260504200313 | 23 | 229 | 0.0 | 11.3 | 0.00 | 0.00 | 0.00 | 30 | 1006.4 |
| 20260504195809 | 23 | 266 | 8.0 | 9.7 | 0.00 | 0.00 | 0.00 | 31 | 1006.5 |
| 20260504195305 | 22 | 270 | 11.3 | 17.7 | 0.00 | 0.00 | 0.00 | 32 | 1006.5 |
| 20260504194802 | 23 | 194 | 1.6 | 16.1 | 0.00 | 0.00 | 0.00 | 31 | 1006.4 |
| 20260504194258 | 23 | 119 | 9.7 | 11.3 | 0.00 | 0.00 | 0.00 | 32 | 1006.4 |
| 20260504193754 | 22 | 315 | 3.2 | 14.5 | 0.00 | 0.00 | 0.00 | 32 | 1006.6 |
| 20260504193252 | 23 | 253 | 17.7 | 17.7 | 0.00 | 0.00 | 0.00 | 32 | 1006.7 |
| 20260504192750 | 22 | 252 | 8.0 | 19.3 | 0.00 | 0.00 | 0.00 | 31 | 1006.8 |
| 20260504192248 | 22 | 245 | 8.0 | 17.7 | 0.00 | 0.00 | 0.00 | 31 | 1006.8 |
| 20260504191747 | 23 | 206 | 6.4 | 14.5 | 0.00 | 0.00 | 0.00 | 32 | 1006.6 |
| 20260504191243 | 22 | 212 | 14.5 | 22.5 | 0.00 | 0.00 | 0.00 | 32 | 1006.6 |
| 20260504190739 | 23 | 175 | 4.8 | 9.7 | 0.00 | 0.00 | 0.00 | 33 | 1006.9 |
| 20260504190235 | 23 | 234 | 4.8 | 14.5 | 0.00 | 0.00 | 0.00 | 31 | 1006.7 |
| 20260504185732 | 22 | 223 | 20.9 | 24.1 | 0.00 | 0.00 | 0.00 | 31 | 1006.8 |
| 20260504185229 | 22 | 264 | 16.1 | 27.4 | 0.00 | 0.00 | 0.00 | 32 | 1006.9 |
| 20260504184725 | 22 | 209 | 6.4 | 14.5 | 0.00 | 0.00 | 0.00 | 31 | 1006.7 |
| 20260504184221 | 22 | 315 | 6.4 | 11.3 | 0.00 | 0.00 | 0.00 | 33 | 1006.7 |
| 20260504183717 | 22 | 45 | 4.8 | 20.9 | 0.00 | 0.00 | 0.00 | 32 | 1006.9 |
| 20260504183214 | 22 | 219 | 8.0 | 14.5 | 0.00 | 0.00 | 0.00 | 31 | 1006.8 |
| 20260504182712 | 22 | 240 | 9.7 | 9.7 | 0.00 | 0.00 | 0.00 | 32 | 1007.1 |
| 20260504182209 | 22 | 258 | 6.4 | 9.7 | 0.00 | 0.00 | 0.00 | 32 | 1007.1 |
| 20260504181707 | 22 | 310 | 6.4 | 24.1 | 0.00 | 0.00 | 0.00 | 31 | 1007.1 |
| 20260504181204 | 21 | 246 | 0.0 | 14.5 | 0.00 | 0.00 | 0.00 | 34 | 1007.2 |
| 20260504180703 | 22 | 310 | 8.0 | 25.7 | 0.00 | 0.00 | 0.00 | 32 | 1007.4 |
| 20260504180201 | 22 | 205 | 8.0 | 12.9 | 0.00 | 0.00 | 0.00 | 31 | 1007.2 |
| 20260504175658 | 22 | 312 | 3.2 | 16.1 | 0.00 | 0.00 | 0.00 | 32 | 1007.2 |
| 20260504175154 | 22 | 0 | 3.2 | 22.5 | 0.00 | 0.00 | 0.00 | 32 | 1007.4 |
| 20260504174653 | 21 | 351 | 8.0 | 14.5 | 0.00 | 0.00 | 0.00 | 32 | 1007.5 |
| 20260504174149 | 21 | 330 | 6.4 | 20.9 | 0.00 | 0.00 | 0.00 | 32 | 1007.5 |
| 20260504173646 | 21 | 240 | 11.3 | 14.5 | 0.00 | 0.00 | 0.00 | 35 | 1007.6 |
| 20260504173144 | 21 | 241 | 11.3 | 20.9 | 0.00 | 0.00 | 0.00 | 33 | 1007.4 |
| 20260504172640 | 21 | 318 | 4.8 | 9.7 | 0.00 | 0.00 | 0.00 | 32 | 1007.6 |
| 20260504172137 | 21 | 303 | 3.2 | 16.1 | 0.00 | 0.00 | 0.00 | 33 | 1007.5 |
| 20260504171633 | 21 | 262 | 22.5 | 25.7 | 0.00 | 0.00 | 0.00 | 31 | 1007.7 |
| 20260504171131 | 21 | 249 | 8.0 | 29.0 | 0.00 | 0.00 | 0.00 | 33 | 1007.7 |
| 20260504170627 | 21 | 225 | 14.5 | 27.4 | 0.00 | 0.00 | 0.00 | 31 | 1007.9 |
| 20260504170124 | 21 | 323 | 0.0 | 8.0 | 0.00 | 0.00 | 0.00 | 33 | 1007.9 |
| 20260504151010 | 18 | 228 | 3.2 | 8.0 | 0.00 | 0.00 | 0.00 | 37 | 1009.1 |
| 20260504150507 | 18 | 149 | 19.3 | 19.3 | 0.00 | 0.00 | 0.00 | 36 | 1009.4 |
| 20260504140927 | 17 | 303 | 9.7 | 17.7 | 0.00 | 0.00 | 0.00 | 39 | 1009.7 |
| 20260504140424 | 17 | 8 | 0.0 | 17.7 | 0.00 | 0.00 | 0.00 | 37 | 1009.8 |
| 20260504130349 | 15 | 201 | 3.2 | 16.1 | 0.00 | 0.00 | 0.00 | 42 | 1010.4 |
| 20260504120311 | 13 | 52 | 3.2 | 4.8 | 0.00 | 0.00 | 0.00 | 51 | 1010.5 |
| 20260504110235 | 7 | 111 | 0.0 | 3.2 | 0.00 | 0.00 | 0.00 | 68 | 1010.9 |
| 20260504100159 | 5 | 251 | 11.3 | 11.3 | 0.00 | 0.00 | 0.00 | 72 | 1010.8 |